This is the latest recevied weather packets stored in our database for station/object DM2KB-13. If no packets are shown the sender has not sent any weather packets the latest 10 day(s).
| Time | Temp. | Humidity | Pressure | Rain* | Wind** | Luminosity | Snow |
|---|---|---|---|---|---|---|---|
| 1777637678 | 25° C | 26% | 1023.7 hPa | 0 mm | - | 793 W/m² | - |
| 1777637378 | 25° C | 28% | 1023.8 hPa | 0 mm | - | 796 W/m² | - |
| 1777637077 | 24.44° C | 31% | 1023.8 hPa | 0 mm | - | 796 W/m² | - |
| 1777636777 | 24.44° C | 29% | 1023.9 hPa | 0 mm | - | 796 W/m² | - |
| 1777636477 | 24.44° C | 29% | 1024 hPa | 0 mm | - | 798 W/m² | - |
| 1777636176 | 24.44° C | 30% | 1024.2 hPa | 0 mm | - | 800 W/m² | - |
| 1777635876 | 23.89° C | 27% | 1024.2 hPa | 0 mm | - | 800 W/m² | - |
| 1777635576 | 23.89° C | 28% | 1024.3 hPa | 0 mm | - | 800 W/m² | - |
| 1777635275 | 23.89° C | 29% | 1024.3 hPa | 0 mm | - | 802 W/m² | - |
| 1777634975 | 23.33° C | 28% | 1024.4 hPa | 0 mm | - | 802 W/m² | - |
| 1777634675 | 23.33° C | 30% | 1024.5 hPa | 0 mm | - | 798 W/m² | - |
| 1777634375 | 23.33° C | 29% | 1024.5 hPa | 0 mm | - | 798 W/m² | - |
| 1777634074 | 23.33° C | 32% | 1024.5 hPa | 0 mm | - | 796 W/m² | - |
| 1777633774 | 23.33° C | 29% | 1024.6 hPa | 0 mm | - | 796 W/m² | - |
| 1777633474 | 22.78° C | 29% | 1024.7 hPa | 0 mm | - | 793 W/m² | - |
| 1777633174 | 22.78° C | 29% | 1024.8 hPa | 0 mm | - | 793 W/m² | - |
| 1777632873 | 22.78° C | 30% | 1024.8 hPa | 0 mm | - | 788 W/m² | - |
| 1777632573 | 22.78° C | 32% | 1024.9 hPa | 0 mm | - | 786 W/m² | - |
| 1777632273 | 22.78° C | 30% | 1024.9 hPa | 0 mm | - | 782 W/m² | - |
| 1777631972 | 22.78° C | 31% | 1024.9 hPa | 0 mm | - | 779 W/m² | - |
| 1777631672 | 22.78° C | 33% | 1024.9 hPa | 0 mm | - | 773 W/m² | - |
| 1777631372 | 22.22° C | 31% | 1025.1 hPa | 0 mm | - | 770 W/m² | - |
| 1777631072 | 22.22° C | 32% | 1025.1 hPa | 0 mm | - | 765 W/m² | - |
| 1777630771 | 22.22° C | 31% | 1025.2 hPa | 0 mm | - | 759 W/m² | - |
| 1777630471 | 21.67° C | 32% | 1025.3 hPa | 0 mm | - | 754 W/m² | - |
* Rain latest hour (hover to see other rain measurements)
** Current wind speed in m/s (hover to see current wind gust speed)